[Date Prev][Date Next][Thread Prev][Thread Next] - [Date Index][Thread Index][Author Index]
2 Line ISS Keps 8-7
- Subject: [sarex] 2 Line ISS Keps 8-7
- From: "Dave Larsen PhD" <doc@xxxxxxxxxxx>
- Date: Wed, 7 Aug 2002 03:12:21 -0700
ISS
1 25544U 98067A 02219.18879257 .00020318 00000-0 27753-3 0 218
2 25544 51.6356 156.9224 0017905 111.8749 26.0509 15.57266854211982
----
Via the sarex mailing list at AMSAT.ORG courtesy of AMSAT-NA.
To unsubscribe, send "unsubscribe sarex" to Majordomo@amsat.org
AMSAT Home